Weather History for Birmingham, United Kingdom

Change the Weather History Date:

Thursday, January 17, 2013

  Actual Average Record
Temperature  
Mean Temperature 30 °F -  
Max Temperature 33 °F 43 °F 48 °F (1997)
Min Temperature 26 °F 32 °F 21 °F (2012)
Degree Days  
Heating Degree Days 36    
Moisture  
Dew Point 28 °F    
Average Humidity 93    
Maximum Humidity 100    
Minimum Humidity 81    
Precipitation  
Precipitation 0.00 in 0.07 in - ()
Sea Level Pressure  
Sea Level Pressure 29.98 in    
Wind  
Wind Speed 6 mph ()    
Max Wind Speed 13 mph    
Max Gust Speed -    
Visibility 4.5 miles    
Events Snow    
Averages and records for this station are not official NWS values.
T = Trace of Precipitation, MM = Missing Value Source: Averaged Metar Reports

Daily Weather History Graph

Daily Weather History Graph

Search for Another Location

Airport:

Trip Planner

Search our weather history database for the weather conditions in past years. The results will help you decide how hot, cold, wet, or windy it might be!

Date:

Astronomy

Jan. 17, 2013 Rise Set
Actual Time 8:08 AM GMT 4:26 PM GMT
Civil Twilight 7:28 AM GMT 5:05 PM GMT
Nautical Twilight 6:46 AM GMT 5:48 PM GMT
Astronomical Twilight 6:05 AM GMT 6:29 PM GMT
Moon 10:12 AM GMT (1/17) No Moon Set
Length of Visible Light 9h 37m
Length of Day
8h 18m
Waxing Crescent, 35% of the Moon is Illuminated
Jan 17
Waxing Crescent
Jan 18
First Quarter
Jan 27
Full
Feb 3
Last Quarter
Feb 10
New

Hourly Weather History & Observations

Time (GMT) Temp. Windchill Dew Point Humidity Pressure Visibility Wind Dir Wind Speed Gust Speed Precip Events Conditions
12:20 AM 26.6 °F 22.6 °F 26.6 °F 100% 30.01 in - SE 3.5 mph - N/A   Mist
12:50 AM 26.6 °F - 26.6 °F 100% 30.01 in - SE 2.3 mph - N/A   Mist
1:20 AM 26.6 °F - 26.6 °F 100% 30.01 in 2.5 mi South 2.3 mph - N/A   Mist
1:50 AM 26.6 °F - 26.6 °F 100% 30.01 in - South 2.3 mph - N/A   Mist
2:20 AM 26.6 °F 21.2 °F 26.6 °F 100% 30.01 in - SE 4.6 mph - N/A   Mist
2:50 AM 26.6 °F 22.6 °F 26.6 °F 100% 30.04 in - SE 3.5 mph - N/A   Mist
3:20 AM 26.6 °F 21.2 °F 26.6 °F 100% 30.04 in 2.5 mi SSE 4.6 mph - N/A   Mist
3:50 AM 26.6 °F 22.6 °F 26.6 °F 100% 30.01 in 2.5 mi SE 3.5 mph - N/A   Partly Cloudy
4:50 AM 28.4 °F 24.6 °F 26.6 °F 93% 30.01 in 2.5 mi SE 3.5 mph - N/A   Partly Cloudy
5:20 AM 28.4 °F 22.2 °F 26.6 °F 93% 30.01 in 3.7 mi SE 5.8 mph - N/A   Mostly Cloudy
5:50 AM 28.4 °F 23.3 °F 26.6 °F 93% 30.01 in 4.3 mi SSE 4.6 mph - N/A Snow Light Snow
6:20 AM 28.4 °F 23.3 °F 26.6 °F 93% 30.01 in 4.3 mi SSE 4.6 mph - N/A Snow Light Snow
6:50 AM 28.4 °F 22.2 °F 28.4 °F 100% 30.01 in 3.7 mi SSE 5.8 mph - N/A Snow Light Snow
7:20 AM 28.4 °F 21.2 °F 26.6 °F 93% 30.01 in 3.7 mi SSE 6.9 mph - N/A Snow Light Snow
7:50 AM 28.4 °F 21.2 °F 28.4 °F 100% 30.04 in 3.7 mi SSE 6.9 mph - N/A Snow Light Snow
8:20 AM 28.4 °F 21.2 °F 28.4 °F 100% 30.04 in 3.7 mi SSE 6.9 mph - N/A Snow Light Snow
8:50 AM 30.2 °F 22.6 °F 28.4 °F 93% 30.04 in 5.0 mi SSE 8.1 mph - N/A   Mostly Cloudy
9:20 AM 30.2 °F 23.4 °F 28.4 °F 93% 30.04 in 5.0 mi SSE 6.9 mph - N/A   Mostly Cloudy
9:50 AM 30.2 °F 21.9 °F 28.4 °F 93% 30.04 in 6.2 mi SSE 9.2 mph - N/A   Mostly Cloudy
10:20 AM 30.2 °F 21.9 °F 28.4 °F 93% 30.04 in 6.2 mi SSE 9.2 mph - N/A   Scattered Clouds
10:50 AM 32.0 °F 24.2 °F 28.4 °F 87% 30.04 in 6.2 mi SSE 9.2 mph - N/A   Scattered Clouds
11:20 AM 32.0 °F 24.2 °F 28.4 °F 87% 30.04 in 6.2 mi SSE 9.2 mph - N/A   Scattered Clouds
11:50 AM 32.0 °F 24.8 °F 28.4 °F 87% 30.01 in 6.2 mi SSE 8.1 mph - N/A   Mostly Cloudy
12:20 PM 32.0 °F 24.8 °F 28.4 °F 87% 30.01 in 6.2 mi South 8.1 mph - N/A   Mostly Cloudy
12:50 PM 33.8 °F 26.4 °F 28.4 °F 81% 30.01 in 6.2 mi SSE 9.2 mph - N/A   Mostly Cloudy
1:20 PM 33.8 °F 25.8 °F 28.4 °F 81% 30.01 in 6.2 mi SSE 10.4 mph - N/A   Mostly Cloudy
1:50 PM 33.8 °F 25.8 °F 28.4 °F 81% 29.98 in 6.2 mi SSE 10.4 mph - N/A   Partly Cloudy
2:20 PM 33.8 °F 25.8 °F 28.4 °F 81% 29.98 in 6.2 mi SSE 10.4 mph - N/A   Partly Cloudy
2:50 PM 33.8 °F 25.8 °F 28.4 °F 81% 29.98 in 6.2 mi SSE 10.4 mph - N/A   Partly Cloudy
3:20 PM 33.8 °F 25.3 °F 28.4 °F 81% 29.98 in 6.2 mi SSE 11.5 mph - N/A Snow Light Snow
3:50 PM 33.8 °F 24.8 °F 28.4 °F 81% 29.98 in 6.2 mi SSE 12.7 mph - N/A Snow Light Snow
4:20 PM 33.8 °F 25.3 °F 28.4 °F 81% 29.98 in 6.2 mi SSE 11.5 mph - N/A Snow Light Snow
4:50 PM 33.8 °F 25.8 °F 28.4 °F 81% 29.98 in 5.0 mi SSE 10.4 mph - N/A Snow Light Snow
5:20 PM 32.0 °F 22.5 °F 28.4 °F 87% 29.95 in 5.0 mi SE 12.7 mph - N/A Snow Light Snow
5:50 PM 32.0 °F 22.5 °F 30.2 °F 93% 29.95 in 3.7 mi SE 12.7 mph - N/A Snow Light Snow
6:20 PM 32.0 °F 22.5 °F 30.2 °F 93% 29.95 in 3.7 mi SE 12.7 mph - N/A Snow Light Snow
6:50 PM 32.0 °F 22.5 °F 30.2 °F 93% 29.95 in - SE 12.7 mph - N/A Snow Light Snow
7:20 PM 32.0 °F 22.5 °F 30.2 °F 93% 29.95 in - SE 12.7 mph - N/A Snow Light Snow
7:50 PM 30.2 °F 20.8 °F 30.2 °F 100% 29.95 in - SE 11.5 mph - N/A Snow Light Snow
8:20 PM 30.2 °F 20.2 °F 30.2 °F 100% 29.92 in - ESE 12.7 mph - N/A Snow Light Snow
8:50 PM 30.2 °F 20.2 °F 30.2 °F 100% 29.92 in 1.2 mi ESE 12.7 mph - N/A Snow Snow
9:20 PM 30.2 °F 20.2 °F 30.2 °F 100% 29.92 in 1.3 mi SE 12.7 mph - N/A Snow Snow
9:50 PM 30.2 °F 20.2 °F 30.2 °F 100% 29.89 in 3.7 mi SE 12.7 mph - N/A Snow Light Snow
10:20 PM 30.2 °F 20.8 °F 30.2 °F 100% 29.89 in 3.1 mi ESE 11.5 mph - N/A Snow Light Snow
10:50 PM 32.0 °F 22.5 °F 30.2 °F 93% 29.86 in 3.7 mi ESE 12.7 mph - N/A Snow Light Snow
11:20 PM 32.0 °F 23.0 °F 30.2 °F 93% 29.86 in 3.1 mi ESE 11.5 mph - N/A Snow Light Snow
11:50 PM 32.0 °F 23.6 °F 30.2 °F 93% 29.83 in 5.0 mi SE 10.4 mph - N/A Snow Light Snow